Weather History for KIWD - June, 2013

Change the Weather History Date:

Sunday, June 2, 2013

  Actual Average Record
Temperature  
Mean Temperature 50 °F -  
Max Temperature 57 °F 65 °F 82 °F (1997)
Min Temperature 42 °F 43 °F 35 °F (2003)
Degree Days  
Heating Degree Days 16    
Moisture  
Dew Point 35 °F    
Average Humidity 53    
Maximum Humidity 81    
Minimum Humidity 41    
Precipitation  
Precipitation 0.00 in - - ()
Sea Level Pressure  
Sea Level Pressure 29.98 in    
Wind  
Wind Speed 7 mph (NNW)    
Max Wind Speed 13 mph    
Max Gust Speed 18 mph    
Visibility 10 miles    
Events      
Averages and records for this station are not official NWS values.
T = Trace of Precipitation, MM = Missing Value Source: NWS Daily Summary

Daily Weather History Graph

Daily Weather History Graph

Search for Another Location

Airport or City:

Trip Planner

Search our weather history database for the weather conditions in past years. The results will help you decide how hot, cold, wet, or windy it might be!

Date:

Astronomy

Jun. 02, 2013 Rise Set
Actual Time 5:10 AM CDT 8:47 PM CDT
Civil Twilight 4:32 AM CDT 9:25 PM CDT
Nautical Twilight 3:41 AM CDT 10:16 PM CDT
Astronomical Twilight 2:33 AM CDT 11:25 PM CDT
Moon 1:56 AM CDT (6/2) 3:00 PM CDT (6/2)
Length of Visible Light 16h 52m
Length of Day
15h 36m
Waning Crescent, 30% of the Moon is Illuminated
Jun 2
Waning Crescent
Jun 8
New
Jun 16
First Quarter
Jun 23
Full
Jun 29
Last Quarter

Hourly Weather History & Observations

Time (CDT) Temp. Windchill Dew Point Humidity Pressure Visibility Wind Dir Wind Speed Gust Speed Precip Events Conditions
10:35 AM 42.8 °F 37.5 °F 33.8 °F 70% 30.01 in 10.0 mi NNW 9.2 mph - N/A   Overcast
10:55 AM 42.8 °F 36.2 °F 33.8 °F 70% 30.02 in 10.0 mi NW 12.7 mph 16.1 mph N/A   Overcast
4:15 PM 55.4 °F - 35.6 °F 47% 29.98 in 10.0 mi NNW 9.2 mph - N/A   Clear
4:35 PM 55.4 °F - 35.6 °F 47% 29.97 in 10.0 mi WNW 9.2 mph 18.4 mph N/A   Clear
4:55 PM 55.4 °F - 35.6 °F 47% 29.97 in 10.0 mi NNW 9.2 mph - N/A   Clear
5:15 PM 55.4 °F - 35.6 °F 47% 29.97 in 10.0 mi NW 9.2 mph 16.1 mph N/A   Clear
5:35 PM 57.2 °F - 35.6 °F 44% 29.97 in 10.0 mi NNW 11.5 mph - N/A   Clear
5:55 PM 55.4 °F - 33.8 °F 44% 29.97 in 10.0 mi NW 6.9 mph - N/A   Clear
6:15 PM 57.2 °F - 33.8 °F 41% 29.97 in 10.0 mi North 4.6 mph - N/A   Clear
6:35 PM 57.2 °F - 35.6 °F 44% 29.97 in 10.0 mi North 5.8 mph - N/A   Clear
6:55 PM 55.4 °F - 33.8 °F 44% 29.97 in 10.0 mi NNE 3.5 mph - N/A   Clear
7:15 PM 55.4 °F - 33.8 °F 44% 29.97 in 10.0 mi NNE 3.5 mph - N/A   Clear
7:35 PM 55.4 °F - 33.8 °F 44% 29.98 in 10.0 mi NE 4.6 mph - N/A   Clear
7:55 PM 53.6 °F - 33.8 °F 47% 29.98 in 10.0 mi NE 3.5 mph - N/A   Clear
8:15 PM 53.6 °F - 33.8 °F 47% 29.97 in 10.0 mi Calm Calm - N/A   Clear
8:35 PM 51.8 °F - 37.4 °F 58% 29.97 in 10.0 mi Calm Calm - N/A   Clear
8:55 PM 46.4 °F - 37.4 °F 71% 29.97 in 10.0 mi Calm Calm - N/A   Clear
9:15 PM 44.6 °F - 37.4 °F 76% 29.98 in 10.0 mi Calm Calm - N/A   Clear
9:35 PM 42.8 °F - 37.4 °F 81% 29.98 in 10.0 mi Calm Calm - N/A   Clear